This is the latest recevied weather packets stored in our database for station/object K7SKM. If no packets are shown the sender has not sent any weather packets the latest 10 day(s).
| Time | Temp. | Humidity | Pressure | Rain* | Wind** | Luminosity | Snow |
|---|---|---|---|---|---|---|---|
| 1777327803 | 15.56° C | 55% | 1021.8 hPa | 0 mm | - | 116 W/m² | - |
| 1777327500 | 16.11° C | 54% | 1021.8 hPa | 0 mm | - | 142 W/m² | - |
| 1777327197 | 16.67° C | 53% | 1021.8 hPa | 0 mm | - | 157 W/m² | - |
| 1777326894 | 16.11° C | 55% | 1021.8 hPa | 0 mm | - | 202 W/m² | - |
| 1777326591 | 16.11° C | 55% | 1021.7 hPa | 0 mm | - | 158 W/m² | - |
| 1777326288 | 15.56° C | 57% | 1021.6 hPa | 0 mm | - | 185 W/m² | - |
| 1777325986 | 15.56° C | 56% | 1021.7 hPa | 0 mm | - | 177 W/m² | - |
| 1777325684 | 15.56° C | 54% | 1021.5 hPa | 0 mm | - | 155 W/m² | - |
| 1777325382 | 16.11° C | 55% | 1021.7 hPa | 0 mm | - | 178 W/m² | - |
| 1777325079 | 15.56° C | 55% | 1021.7 hPa | 0 mm | - | 178 W/m² | - |
| 1777324776 | 15.56° C | 55% | 1021.9 hPa | 0 mm | - | 163 W/m² | - |
| 1777324473 | 15.56° C | 55% | 1021.7 hPa | 0 mm | - | 173 W/m² | - |
| 1777324170 | 15° C | 57% | 1021.5 hPa | 0 mm | - | 158 W/m² | - |
| 1777323869 | 15.56° C | 56% | 1021.8 hPa | 0 mm | - | 156 W/m² | - |
| 1777323565 | 15° C | 57% | 1021.6 hPa | 0 mm | - | 137 W/m² | - |
| 1777323262 | 15° C | 58% | 1021.8 hPa | 0 mm | - | 145 W/m² | - |
| 1777322960 | 15° C | 58% | 1021.8 hPa | 0 mm | - | 160 W/m² | - |
| 1777322658 | 15° C | 58% | 1021.6 hPa | 0 mm | - | 174 W/m² | - |
| 1777322355 | 15° C | 57% | 1021.6 hPa | 0 mm | - | 229 W/m² | - |
| 1777322052 | 15° C | 58% | 1021.8 hPa | 0 mm | - | 188 W/m² | - |
| 1777321749 | 15° C | 58% | 1021.7 hPa | 0 mm | - | 190 W/m² | - |
| 1777321445 | 15° C | 58% | 1021.7 hPa | 0 mm | - | 194 W/m² | - |
| 1777321143 | 14.44° C | 58% | 1021.8 hPa | 0 mm | - | 185 W/m² | - |
| 1777320840 | 15° C | 59% | 1021.6 hPa | 0 mm | - | 119 W/m² | - |
| 1777320536 | 14.44° C | 59% | 1021.6 hPa | 0 mm | - | 124 W/m² | - |
* Rain latest hour (hover to see other rain measurements)
** Current wind speed in m/s (hover to see current wind gust speed)